Location: Beccas
(43.4309°N, 0.1528°E)
Time: 11:18:37
(UTC+00:00)

Iridium 4 Rocket - Pass Details

Date: 15 October 2021
Orbit: 586 x 903 km, 86.9° (Epoch: 02 December)

Event Time Altitude Azimuth Distance (km) Brightness Sun altitude
Rises 18:29:39 0° 4° (N) 2,872 6.5 -14.1°
Reaches altitude 10° 18:31:54 10° 12° (NNE) 1,991 5.6 -14.5°
Maximum altitude 18:36:04 43° 84° (E) 912 3.4 -15.3°
Drops below altitude 10° 18:40:31 10° 156° (SSE) 2,127 5.5 -16.1°
Sets 18:42:58 0° 163° (SSE) 3,093 6.4 -16.5°
